Location: Borealis Mine
(38.3824°N, 118.7610°W)
Time: 18:07:32
(UTC+00:00)

CZ-4B R/B - Pass Details

Date: 18 September 2020
Orbit: 391 x 461 km, 97.6° (Epoch: 19 October)

Event Time Altitude Azimuth Distance (km) Brightness Sun altitude
Rises 13:08:13 0° 194° (SSW) 2,292 4.8 -7.0°
Reaches altitude 10° 13:10:27 10° 210° (SSW) 1,449 3.6 -6.6°
Maximum altitude 13:12:56 22° 264° (W) 945 2.4 -6.1°
Drops below altitude 10° 13:15:29 10° 317° (NW) 1,486 3.7 -5.6°
Sets 13:17:48 0° 334° (NNW) 2,368 4.9 -5.1°
